Lapse_Rate
2.3 1.8 4.6 5.8 5.3 4.6 3.8 3.8 2.9 0.8 0.0 -3.0 -3.0 -2.7 -1.1 -0.7 -0.0 0.8 0.3 1.2 1.8 2.2 2.5 3.1 2.9 2.0 1.8 1.8 1.4 1.4 1.1 0.9 1.0 1.1 1.5 1.9 2.1 1.8
3.7 2.4 2.5 5.7 5.1 4.3 3.4 3.7 4.0 3.6 1.7 -0.5 -2.8 -4.8 -2.4 -1.4 -0.3 0.5 0.1 1.1 1.7 1.9 1.8 2.0 2.2 1.8 1.7 1.6 1.1 0.8 0.7 0.7 0.3 0.8 1.1 1.2 1.6 1.3
3.6 3.4 2.9 3.2 4.7 4.0 3.4 2.8 3.3 4.2 4.8 0.4 -2.3 -3.2 -3.7 -2.4 -2.7 -0.6 -0.0 -0.0 0.6 1.2 1.2 1.2 1.6 1.6 1.5 1.5 1.1 0.4 0.2 -0.2 -0.1 -0.0 0.7 0.9 0.9 1.1
3.9 2.9 2.8 1.8 5.4 4.1 3.5 3.6 3.0 3.5 3.1 1.9 -0.5 -2.4 -3.4 -3.9 -2.4 -2.6 -1.8 -0.7 -0.1 0.5 0.6 0.6 1.2 1.3 1.2 1.0 0.4 0.1 -0.5 -1.0 -1.0 -0.4 -0.4 0.4 0.3 0.6
4.3 3.4 2.3 3.7 1.5 4.6 2.9 3.0 2.7 1.6 2.3 1.5 0.1 -2.4 -3.9 -4.8 -4.7 -3.4 -3.4 -1.3 -0.3 0.1 0.4 0.4 0.7 0.8 0.7 0.3 0.1 -0.3 -1.0 -1.3 -1.3 -0.9 -0.4 -0.3 -0.6 -0.2
4.5 5.0 2.4 2.7 3.9 5.3 3.4 2.7 2.9 2.5 1.4 1.6 0.7 0.0 -2.1 -3.8 -3.8 -2.5 -3.5 -2.7 -1.3 -0.6 -0.3 0.0 0.1 0.3 0.2 -0.2 -0.4 -1.1 -1.5 -1.5 -1.1 -0.9 -0.3 -0.7 -1.3 -0.7
4.9 4.7 3.7 2.7 2.5 3.5 5.2 3.1 2.7 2.7 2.2 1.4 1.2 -0.2 -1.5 -3.1 -2.6 -4.4 -4.4 -2.9 -2.5 -2.8 -2.6 -2.7 -2.2 -1.8 -1.0 -0.7 -1.5 -1.6 -1.8 -1.7 -1.5 -0.9 -0.5 -0.9 -1.5 -1.0
5.9 4.6 4.9 2.9 2.7 4.0 3.3 3.5 2.6 2.2 2.5 2.9 2.1 1.2 1.0 -0.2 -2.6 -2.9 -5.0 -2.8 -2.2 -3.8 -3.7 -3.7 -3.1 -3.5 -2.6 -2.5 -2.1 -1.9 -2.0 -1.8 -1.3 -0.9 -0.8 -1.4 -1.7 -1.3
6.1 5.0 4.5 5.1 2.7 3.2 3.8 4.6 2.4 2.4 3.1 3.1 2.7 3.2 2.9 0.1 -1.6 -2.9 -3.0 -5.1 -5.2 -5.7 -6.1 -5.9 -4.3 -3.8 -3.5 -2.6 -2.0 -2.0 -2.2 -1.7 -1.0 -0.9 -1.3 -1.8 -2.0 -1.7
6.5 6.0 5.2 4.7 4.6 3.4 3.9 5.6 4.0 2.3 2.7 3.0 4.0 4.5 4.0 1.7 0.2 -0.2 -2.4 -4.7 -5.1 -5.9 -4.9 -4.4 -5.5 -5.6 -5.2 -3.5 -2.0 -2.3 -2.4 -1.6 -1.0 -0.9 -1.6 -1.9 -2.1 -2.0
8.2 7.3 6.2 6.2 5.4 4.9 4.4 5.0 6.4 3.7 2.7 2.3 3.2 4.7 3.0 2.3 1.8 0.2 -1.0 -2.2 -5.8 -5.1 -6.1 -5.5 -5.3 -6.0 -5.6 -5.2 -2.6 -2.4 -2.3 -1.2 -1.1 -1.1 -1.9 -1.8 -2.2 -3.0
9.0 9.1 8.9 8.6 8.0 6.5 5.7 5.4 6.0 5.5 3.7 2.1 2.1 2.4 1.9 1.5 1.5 3.6 0.8 -1.4 -4.9 -3.5 -4.6 -5.2 -6.1 -6.0 -5.4 -5.0 -4.3 -3.5 -2.2 -1.5 -1.6 -1.9 -2.0 -1.4 -2.5 -3.7
8.1 8.3 8.9 9.1 8.7 7.5 5.9 5.1 5.6 6.4 5.0 3.8 2.9 3.2 1.6 2.0 2.4 2.7 1.9 -0.0 -4.2 -4.9 -6.1 -6.4 -6.7 -6.6 -7.1 -6.5 -5.8 -4.2 -3.2 -2.8 -3.1 -3.7 -2.6 -1.4 -1.4 -2.8
8.2 8.6 8.5 8.4 8.3 8.1 6.0 4.0 4.3 4.1 5.5 3.9 3.4 3.3 2.3 2.2 1.7 0.5 -1.1 -2.8 -3.9 -4.2 -4.6 -5.7 -6.6 -6.2 -6.9 -7.6 -5.2 -5.3 -4.7 -3.7 -3.8 -4.5 -4.0 -2.3 -2.2 -1.9
8.9 8.5 8.9 9.0 8.7 8.2 5.7 4.1 5.1 5.2 5.1 3.5 3.1 2.1 2.2 2.1 0.4 -2.0 -3.8 -4.3 -5.1 -4.8 -4.3 -5.4 -5.1 -6.1 -5.8 -4.9 -5.6 -6.8 -5.4 -5.4 -4.8 -5.0 -4.7 -4.0 -3.9 -3.6
8.4 8.1 8.6 8.9 8.8 8.2 5.7 5.0 5.9 6.2 5.8 3.6 2.6 2.6 -0.6 -1.4 -0.8 -1.3 -1.6 -1.5 -3.0 -5.3 -6.8 -5.5 -5.0 -5.7 -6.0 -4.7 -5.4 -5.4 -6.3 -6.1 -6.5 -5.2 -5.2 -4.3 -3.6 -3.2
8.7 7.7 7.6 7.6 7.5 7.1 5.2 5.2 6.2 6.3 5.8 3.9 2.4 1.0 -0.4 -0.3 -0.6 -0.9 -0.2 -1.2 -2.7 -4.3 -6.5 -6.6 -6.6 -6.2 -6.3 -5.9 -5.9 -5.8 -6.2 -6.8 -6.2 -5.5 -5.8 -5.2 -4.9 -3.3
8.0 7.5 7.6 7.6 7.6 7.7 6.5 4.9 5.8 6.7 6.5 4.5 2.4 0.4 0.1 0.2 -0.6 0.3 0.3 0.7 -1.2 -2.0 -5.0 -6.5 -5.0 -3.3 -4.8 -4.4 -3.7 -6.2 -7.8 -7.1 -7.1 -6.6 -6.8 -5.7 -6.0 -4.3
7.7 7.6 7.6 7.6 7.5 7.7 7.4 5.6 3.8 6.8 6.4 4.2 2.5 1.0 0.4 0.7 -0.4 0.2 0.9 -0.2 -1.0 -2.4 -4.0 -5.3 -3.3 -1.7 -2.3 -2.7 -5.5 -4.4 -7.4 -8.0 -7.5 -7.9 -6.9 -6.1 -5.5 -4.9
8.2 7.6 7.4 7.2 7.6 7.3 7.4 6.5 4.8 5.8 5.9 4.2 2.6 0.7 0.7 0.2 0.3 0.2 0.7 0.9 -0.8 -2.0 -4.1 -4.2 -3.1 -1.8 -1.1 -3.3 -6.4 -8.4 -4.9 -7.2 -8.3 -8.2 -7.9 -6.7 -3.9 -1.3
7.9 7.4 7.3 7.4 7.5 7.2 6.3 5.7 5.1 4.1 5.3 3.8 2.9 1.5 1.3 0.4 1.4 0.1 0.9 1.3 -0.0 -1.0 -2.9 -3.5 -3.8 -4.4 -6.6 -5.8 -6.5 -7.8 -8.1 -4.9 -5.4 -8.5 -8.4 -6.7 -5.9 -5.2
7.0 6.9 7.2 7.2 6.6 6.5 5.7 5.2 4.7 4.2 5.2 4.1 3.1 2.1 1.9 0.8 1.5 0.7 1.3 -0.4 0.8 0.2 -1.4 -4.3 -5.9 -4.5 -4.8 -4.1 -4.7 -8.2 -8.9 -8.7 -4.0 -4.0 -2.8 -3.9 -4.7 -3.7
6.2 6.5 6.6 6.7 5.8 5.7 5.2 4.9 4.1 4.4 5.7 4.7 3.6 2.4 2.0 0.9 1.8 0.3 1.0 0.6 0.8 -0.2 -4.2 -4.9 -4.6 -4.8 -6.2 -4.6 -5.3 -7.6 -8.5 -8.9 -8.5 -7.3 -6.9 -2.0 -1.7 -1.9
Wind_Speed
12 12 9 8 7 8 5 3 4 4 9 5 5 14 18 20 24 24 25 27 26 23 19 17 11 8 7 5 3 4 5 7 9 10 13 15 18 19
8 11 13 10 9 8 9 5 3 4 4 5 7 3 15 17 22 23 23 26 27 24 22 20 15 12 9 7 4 2 4 6 7 9 12 15 17 18
11 10 14 16 6 7 7 6 4 3 7 1 1 3 6 10 11 18 22 21 22 24 22 20 18 14 10 7 5 1 2 5 6 9 12 15 15 18
13 11 14 10 13 10 8 12 7 3 3 4 3 3 4 6 9 9 12 15 19 21 20 18 19 16 12 8 4 1 4 5 5 9 11 13 14 17
13 13 13 13 15 9 10 9 8 4 3 3 3 2 1 3 3 3 4 7 15 20 20 19 17 16 12 8 5 4 5 5 6 8 11 11 15 17
13 14 13 14 15 16 12 13 11 11 5 3 3 3 2 1 3 5 4 2 3 10 14 17 17 14 11 9 7 7 8 6 6 9 9 11 14 17
13 13 13 15 20 23 12 12 12 11 8 6 3 3 3 3 10 4 4 4 1 3 3 4 9 10 10 10 9 10 10 7 8 10 7 11 15 15
14 13 13 18 18 22 25 19 19 15 15 11 9 6 8 5 5 8 6 4 4 10 3 3 7 3 9 11 12 12 10 8 9 6 7 12 16 15
15 15 13 11 17 14 20 23 24 27 24 17 15 13 10 11 11 10 8 4 3 4 4 2 2 3 8 13 13 13 10 8 8 6 9 13 14 13
15 15 16 16 15 16 13 14 17 17 19 15 18 17 13 11 13 7 7 5 3 3 3 3 3 2 6 9 11 12 9 8 6 6 10 13 13 12
15 15 15 16 20 23 15 15 17 16 21 30 27 24 15 19 16 9 8 8 2 3 3 3 3 3 2 2 9 10 8 8 6 6 11 12 12 11
13 15 20 19 22 23 15 15 17 18 16 16 16 11 16 21 28 15 12 12 4 2 6 4 4 4 3 1 3 6 8 9 8 8 12 10 10 12
11 12 10 23 25 21 23 15 16 18 19 14 14 12 10 12 13 11 13 12 5 2 8 4 4 3 3 4 2 3 6 6 6 8 12 9 10 10
13 11 13 22 27 28 22 26 25 24 13 12 11 12 12 13 11 6 7 7 5 3 24 9 4 4 4 3 3 2 2 5 8 5 9 8 9 9
11 19 30 29 29 22 23 27 22 12 11 11 12 11 13 11 10 8 10 12 14 12 10 4 5 6 3 5 6 4 4 2 6 6 7 8 4 4
19 15 20 26 28 23 18 16 11 11 13 14 12 10 7 9 8 9 6 6 4 3 10 8 11 5 4 6 4 7 3 4 3 4 7 8 8 4
20 13 11 11 11 11 10 12 10 10 13 12 12 10 10 11 9 9 8 7 4 7 3 3 14 19 11 6 4 4 6 3 3 4 3 4 2 4
15 11 12 11 12 12 11 10 11 15 13 12 12 13 13 13 12 9 9 10 11 9 7 6 8 8 4 10 11 7 2 3 3 3 2 3 1 3
12 11 12 11 12 12 11 10 12 12 14 12 13 14 14 14 17 13 12 10 10 9 9 9 9 9 6 3 1 4 4 2 4 2 2 2 3 3
10 9 11 11 12 11 11 9 10 12 13 13 13 14 14 16 15 15 14 14 12 9 8 7 7 7 9 11 5 2 3 4 3 3 3 1 3 2
10 10 11 12 11 11 11 11 12 14 12 12 13 13 15 16 17 16 15 21 18 10 13 11 6 11 9 8 5 2 1 7 6 4 4 3 2 0
11 12 11 11 11 11 11 11 12 15 13 13 13 14 15 16 17 17 17 17 16 13 10 9 8 7 3 3 7 7 3 2 8 10 3 2 4 5
12 12 11 12 11 11 12 11 12 16 14 14 13 14 15 15 16 17 16 17 16 13 14 11 7 3 2 5 11 8 7 4 2 3 3 4 4 9
Wind_Direction
304 308 277 253 234 220 232 227 161 162 218 223 203 206 203 197 204 202 203 208 211 215 221 232 232 203 218 246 279 323 345 354 3 2 5 6 2 3
293 294 309 254 232 212 218 241 212 173 214 199 215 180 195 199 200 197 200 206 213 215 219 228 225 220 233 241 259 319 357 1 14 5 9 11 5 3
296 307 291 302 210 211 205 209 221 189 218 231 140 219 185 190 181 189 192 196 207 214 217 226 224 224 228 240 257 313 21 44 23 10 18 13 6 4
301 299 305 306 263 209 198 209 206 174 136 177 177 200 206 190 175 172 180 193 201 213 213 213 219 217 217 220 225 217 97 72 45 31 22 15 8 7
296 290 286 300 312 211 196 208 209 170 143 146 174 176 170 156 126 133 148 169 200 210 203 204 208 211 204 202 193 152 103 91 65 36 32 14 14 15
296 295 296 295 280 286 199 198 199 200 174 156 179 177 149 123 134 173 153 136 174 190 190 197 192 199 190 183 173 139 125 115 71 43 28 16 26 27
290 292 289 288 303 275 258 198 192 199 192 182 175 155 163 149 197 174 149 139 161 150 137 169 163 173 173 173 149 145 134 111 69 53 21 30 38 36
293 293 294 293 287 285 299 201 188 190 198 196 195 191 196 184 169 179 131 150 205 188 130 161 147 168 164 157 151 142 132 103 72 61 40 42 49 41
293 292 293 288 292 296 308 238 198 199 199 194 197 204 187 182 175 170 170 162 188 156 109 143 148 131 149 141 146 141 129 97 80 68 57 57 56 49
288 283 285 285 281 287 284 285 220 206 210 205 211 215 209 170 174 179 162 107 73 94 137 139 168 127 127 134 148 143 130 101 97 72 70 70 61 54
289 281 277 279 281 289 289 281 253 214 218 214 210 219 161 162 160 134 150 160 122 189 167 111 177 117 98 112 148 148 134 113 97 76 77 78 70 64
289 286 285 287 281 281 273 267 284 221 211 211 219 210 169 172 169 184 170 174 137 115 200 113 157 154 90 42 145 157 136 122 94 88 86 81 84 71
299 297 294 292 291 296 287 283 273 273 216 208 206 202 180 184 193 190 184 178 160 148 167 134 157 140 82 132 143 179 151 122 112 90 91 86 85 73
294 292 289 297 296 296 289 280 277 295 222 198 194 191 187 185 191 174 156 115 60 132 165 156 133 155 127 133 149 162 126 124 112 103 106 95 79 71
292 292 295 294 291 291 286 287 268 283 219 189 192 188 192 188 157 123 96 95 71 80 131 174 155 141 124 126 150 161 147 157 116 133 122 110 107 66
291 288 286 289 288 283 286 278 256 262 227 193 193 184 145 152 161 161 148 151 113 76 38 76 119 116 115 113 123 149 145 149 140 132 120 110 112 106
293 288 284 284 285 280 277 280 249 254 229 198 182 167 163 167 164 166 150 154 138 147 126 43 74 83 66 109 108 119 142 109 124 147 127 124 113 154
290 284 281 277 276 278 274 274 268 237 237 201 180 172 169 171 162 166 164 169 155 158 146 147 138 109 68 53 55 131 92 127 144 135 122 113 138 230
283 280 275 272 269 266 265 268 278 239 218 201 184 179 172 170 163 166 168 162 155 156 154 155 164 145 125 120 333 32 124 144 124 94 134 172 153 216
275 284 283 278 279 279 278 272 269 258 208 198 191 177 175 165 170 169 173 167 157 151 155 169 173 171 158 165 150 193 126 135 130 140 143 72 103 168
282 281 277 274 274 276 277 277 270 274 207 193 188 178 178 167 175 172 172 166 157 162 165 177 167 114 109 100 88 91 332 100 132 147 149 110 142 350
281 277 276 277 275 275 273 275 273 271 210 192 187 181 181 172 173 168 170 163 170 170 161 133 126 137 100 113 138 133 126 33 100 112 124 191 168 164
275 276 276 276 276 274 273 272 266 269 209 196 187 183 179 171 173 170 170 169 161 154 147 139 139 90 73 124 136 140 129 113 87 85 349 82 106 92